Theta_e
314 310 308 310 311 310 309 306 305 308 310 308 308 308 311 314 314 314 315 317 319 321 325 328 330 331 332 334 335 335 335 336 334 330 327 327 326 329 328 329 331 332 332 332
310 307 311 310 310 308 307 305 305 308 309 308 308 308 311 312 313 314 315 315 316 319 322 325 327 330 331 332 334 334 335 338 335 332 334 332 331 330 331 332 334 334 332 333
308 309 310 308 307 306 307 305 306 305 308 310 307 305 309 312 313 313 314 315 316 316 317 319 321 324 326 328 331 333 334 336 336 336 333 335 335 336 330 333 332 337 333 334
308 310 308 307 305 306 303 308 306 304 303 299 308 298 307 310 310 311 312 313 315 315 317 318 318 319 320 321 323 325 328 329 330 332 329 331 326 324 328 329 331 332 333 333
307 307 307 306 306 307 304 306 304 303 302 301 302 299 304 310 307 309 312 313 314 316 316 316 317 318 319 320 320 321 324 325 327 329 329 325 328 324 325 324 328 335 333 334
309 312 309 308 308 306 307 304 305 305 302 296 301 301 299 304 307 307 312 312 313 314 315 316 318 318 318 319 319 320 321 324 325 325 326 330 328 325 322 324 322 321 321 323
308 308 310 309 306 308 305 303 296 295 295 295 302 298 300 308 309 309 309 312 313 314 314 314 315 315 316 317 318 318 319 320 321 320 322 324 328 329 327 324 320 323 318 319
303 300 307 308 304 301 302 300 296 289 291 294 301 295 302 309 310 310 311 311 313 313 313 313 313 314 314 315 316 316 317 317 318 318 320 324 325 318 320 322 320 318 318 319
304 302 307 307 306 304 302 301 303 297 300 295 298 300 307 308 307 308 309 310 310 310 312 312 312 313 313 314 315 315 315 315 316 319 322 324 324 323 321 326 327 318 323 318
308 301 306 306 305 306 303 305 298 301 290 288 294 296 298 303 305 306 307 308 310 311 311 311 311 312 313 313 314 314 314 314 315 316 316 317 321 321 319 316 316 316 316 318
309 306 303 303 302 301 302 301 301 300 299 291 290 295 305 304 305 305 307 309 310 309 308 310 310 311 311 311 311 312 312 312 313 314 316 318 317 316 316 315 314 314 314 314
309 307 300 301 305 305 303 301 300 297 295 298 296 295 308 307 307 308 308 309 309 310 309 309 309 309 309 309 310 310 312 311 312 313 313 313 313 312 312 311 312 312 312 313
310 303 299 299 303 304 301 303 304 303 302 297 295 296 308 308 307 307 307 307 307 308 307 307 307 307 307 309 310 310 311 310 310 311 310 308 310 311 310 312 312 312 311 309
308 305 302 296 299 301 299 301 302 302 300 298 298 299 303 304 304 306 306 306 305 306 306 306 306 306 307 309 309 309 308 307 309 309 307 307 308 309 309 310 310 309 311 309
309 302 303 303 302 301 300 299 300 299 300 297 299 299 301 303 304 305 305 305 305 304 305 305 304 306 307 308 308 308 308 308 306 304 304 305 307 307 307 307 308 309 308 309
310 300 302 299 302 301 299 300 301 301 301 301 300 299 305 306 306 304 304 304 303 304 304 304 306 306 306 306 306 305 305 303 303 302 301 302 303 304 304 305 305 305 305 307
306 303 300 297 301 301 297 302 301 301 302 301 296 301 304 303 303 303 303 304 304 303 304 305 306 306 306 305 305 302 300 301 301 301 301 301 302 302 302 303 305 304 304 304
306 304 302 297 300 291 302 306 303 301 302 303 302 303 304 304 305 304 306 304 304 304 305 306 305 306 305 304 300 300 300 300 300 300 300 301 302 302 302 303 303 304 303 303
308 305 300 297 296 299 300 304 301 297 298 304 303 303 304 305 304 304 306 307 305 305 307 306 306 305 305 300 300 299 299 300 300 300 300 301 302 302 303 302 304 305 304 302
309 307 302 299 293 290 301 305 305 303 295 305 304 304 304 304 298 300 307 307 306 308 308 306 306 305 300 299 300 299 298 298 298 300 301 302 303 302 304 305 305 305 304 303
302 303 298 297 295 298 305 307 306 292 297 306 306 306 306 302 303 307 308 306 307 308 306 306 306 300 299 300 299 298 298 298 301 302 302 302 303 305 306 306 305 303 303 303
301 300 298 299 295 292 308 305 296 305 309 309 308 308 306 307 307 307 306 305 306 306 304 304 300 299 300 300 300 298 298 301 302 303 303 304 305 306 305 305 304 303 302 301
298 303 301 302 301 310 310 308 310 311 309 309 309 309 308 307 305 305 304 305 306 304 304 303 300 299 299 300 300 298 299 301 302 303 304 304 305 304 304 303 302 299 300 301
306 307 302 302 304 306 309 311 311 311 310 310 310 310 308 306 306 304 305 306 304 304 301 302 300 299 297 299 300 300 300 302 302 304 304 304 303 304 305 304 300 299 299 298
305 306 304 303 306 307 309 309 309 310 311 309 310 309 307 306 305 305 306 305 304 302 302 301 299 298 298 299 300 301 301 302 302 304 304 303 304 304 303 303 302 298 298 294
306 304 302 301 308 308 307 309 310 309 309 309 308 307 307 307 306 307 304 305 303 301 302 300 299 299 298 299 300 302 302 302 303 304 304 305 305 302 301 301 301 294 294 294
Wind_Speed
6 13 3 14 12 13 13 7 10 2 7 10 9 3 5 1 3 4 4 6 7 9 10 12 12 12 10 8 6 5 5 5 6 5 4 4 6 4 4 4 3 2 4 5
10 1 9 6 8 10 11 12 12 1 4 7 12 10 7 5 1 1 2 5 5 7 10 10 11 11 10 9 9 8 9 8 8 7 6 8 9 5 4 5 2 4 4 5
13 11 1 5 2 9 10 10 12 9 8 10 14 15 15 8 6 4 3 3 5 6 8 8 9 9 9 8 8 7 6 6 7 8 8 6 5 6 7 4 4 3 4 6
6 4 2 5 1 10 14 10 8 12 12 13 3 11 11 15 11 7 4 1 3 4 5 6 8 9 8 8 6 5 6 7 6 4 4 5 7 8 9 9 8 6 7 9
8 2 4 5 8 10 13 11 11 11 12 14 16 11 10 10 12 10 6 1 4 6 6 7 8 7 8 7 8 9 8 8 8 8 8 9 10 9 9 8 9 9 10 13
8 4 3 8 6 4 9 12 14 13 11 12 15 4 5 9 9 4 6 5 3 9 10 6 9 10 10 11 12 11 12 12 12 12 12 11 12 11 11 11 11 11 11 10
10 10 7 4 13 9 7 9 8 7 9 7 7 5 6 9 6 8 8 4 5 8 11 11 16 16 15 14 14 13 15 14 14 14 13 14 13 13 13 13 13 12 11 11
11 8 4 2 5 9 8 8 6 7 8 13 12 9 9 9 6 2 2 4 9 14 12 16 18 17 16 16 16 17 17 16 16 16 15 12 14 12 13 13 12 11 11 12
8 3 7 4 3 5 5 4 8 8 13 11 7 1 15 8 3 6 9 7 12 9 15 16 18 20 18 18 17 17 18 17 16 17 13 13 13 14 14 15 12 12 11 12
3 11 5 8 5 4 7 6 6 5 5 10 11 13 9 2 5 11 10 14 15 18 19 18 16 17 16 17 18 18 18 18 17 18 17 14 15 15 11 10 11 12 12 15
4 3 4 3 11 4 8 10 6 3 7 7 9 7 10 7 9 12 16 16 17 15 17 20 17 19 19 18 19 19 19 21 20 18 17 16 14 14 14 14 14 13 14 15
6 6 10 5 8 5 7 9 4 3 7 8 11 9 5 6 10 11 12 11 12 19 20 19 16 18 20 20 20 20 19 21 21 18 17 17 17 16 15 15 14 13 12 15
3 4 5 8 9 6 7 8 7 7 6 10 10 9 1 15 16 16 19 21 19 20 21 21 20 20 20 19 20 22 21 20 19 18 17 13 13 13 14 13 13 14 14 13
2 8 10 10 14 7 7 9 10 10 7 12 14 19 19 18 16 17 19 20 21 20 23 20 20 22 22 20 20 19 17 17 17 17 16 16 17 17 16 15 14 15 15 14
5 11 12 12 12 12 13 13 13 14 14 14 17 19 18 15 17 16 20 20 20 22 21 22 23 22 23 22 21 19 17 16 16 16 17 16 17 18 16 16 16 15 14 14
6 8 8 13 14 13 15 15 14 14 14 15 16 18 14 16 15 18 20 21 21 21 24 25 23 26 24 23 20 15 15 15 14 16 16 16 16 16 15 15 15 14 14 14
8 7 8 12 6 8 13 10 9 10 7 10 14 16 15 16 16 18 21 21 20 24 25 22 23 19 17 19 15 17 16 14 15 15 15 16 15 15 14 15 15 14 14 13
8 9 10 11 12 13 4 4 4 7 10 10 13 15 14 15 16 19 19 20 23 23 22 20 20 18 17 15 16 15 15 15 15 15 15 15 15 14 14 15 13 14 11 12
9 9 9 8 10 13 13 6 1 4 11 14 11 10 16 16 18 18 16 21 22 23 19 20 16 19 17 15 16 15 16 15 15 15 15 14 14 14 14 13 14 11 10 9
9 10 10 10 10 8 5 7 4 3 8 5 6 13 16 16 12 14 21 21 22 20 21 15 19 16 14 15 14 14 15 15 15 14 14 14 14 13 14 13 11 9 8 11
9 9 13 11 11 10 6 10 4 4 4 9 13 15 16 14 15 20 21 22 21 20 19 19 16 14 14 14 14 15 15 15 15 15 13 13 12 13 12 10 8 9 10 10
9 6 6 7 12 13 11 10 4 4 10 12 13 14 15 17 19 20 21 22 21 22 19 18 13 14 14 14 14 14 15 15 15 14 13 12 10 8 7 9 9 9 9 10
7 10 5 5 2 4 5 5 3 8 12 13 13 13 16 17 19 21 21 18 21 16 17 13 13 15 14 14 13 14 15 15 15 13 9 8 8 8 8 8 6 7 7 6
11 8 6 6 5 6 9 9 8 9 9 10 11 14 15 17 19 20 19 19 15 18 15 13 15 14 14 14 15 13 14 14 14 11 9 9 8 9 6 3 3 5 5 5
4 7 8 12 13 11 10 6 5 6 8 10 11 13 15 17 18 18 18 17 16 15 14 13 13 12 14 14 15 14 13 13 13 8 8 8 7 7 7 5 3 3 4 5
11 12 10 8 6 3 4 2 4 6 9 10 11 13 15 14 15 18 14 13 13 15 13 11 13 13 13 14 15 15 12 13 13 8 6 7 6 6 6 6 6 4 2 8
Wind_Direction
233 261 303 17 350 334 326 313 293 262 83 290 278 329 136 179 219 111 65 55 65 64 54 52 51 48 58 51 38 6 19 355 307 265 260 194 233 176 227 233 202 313 3 346
233 357 33 327 308 296 294 282 272 317 184 286 272 238 159 220 158 99 81 78 51 57 60 61 57 48 49 41 26 38 19 21 342 342 347 344 333 315 336 334 8 290 295 315
5 81 143 279 254 316 262 294 323 313 313 230 254 258 178 188 186 149 123 101 85 41 26 32 51 46 36 50 37 42 20 17 1 351 322 317 287 247 259 301 318 249 300 312
52 52 300 257 141 339 303 14 307 290 280 277 136 286 167 174 201 200 180 147 17 20 18 21 357 17 13 13 46 42 20 3 2 345 322 302 297 291 308 312 307 312 293 273
99 158 308 276 19 333 319 334 304 297 281 280 266 231 83 149 205 191 202 275 305 328 350 352 354 349 334 340 346 340 339 327 322 317 304 310 302 304 296 305 304 299 295 271
92 48 332 10 300 298 302 275 260 248 247 249 232 285 238 174 207 239 156 218 318 316 316 328 320 322 316 327 316 323 324 318 320 309 299 289 279 280 288 293 299 285 273 277
183 182 127 312 308 175 285 317 295 231 203 254 98 279 308 74 51 355 355 335 305 308 293 331 333 322 315 311 319 322 312 309 307 302 307 301 293 288 278 276 279 297 289 278
287 179 181 71 355 326 303 319 292 307 325 320 320 237 119 84 89 40 350 293 299 294 331 316 303 302 315 323 322 314 305 304 305 305 302 302 298 289 287 276 277 293 301 298
327 105 117 59 354 307 22 271 15 300 278 260 279 57 130 91 158 229 241 284 295 303 300 302 317 325 329 316 309 309 304 296 305 308 302 291 286 284 285 287 280 273 287 291
15 287 140 97 249 165 301 16 239 198 287 312 335 300 76 213 296 339 316 303 318 331 325 315 319 315 301 305 303 301 304 304 303 299 296 300 304 295 317 331 317 308 304 301
334 244 157 225 207 320 179 203 222 320 301 307 307 341 44 21 331 314 308 321 344 326 312 307 315 305 305 320 319 315 314 310 304 302 302 297 303 309 299 292 289 289 294 288
65 304 275 248 58 293 287 304 302 278 278 285 309 308 56 335 281 293 296 337 319 275 296 306 314 322 328 320 313 315 316 311 308 311 318 323 314 301 294 291 286 283 278 285
147 238 284 243 181 204 251 242 223 259 278 273 293 279 134 332 337 331 335 328 325 314 318 325 324 325 317 322 326 330 332 330 323 316 313 310 298 294 291 294 289 282 274 270
338 268 260 270 335 337 260 234 243 254 265 271 276 304 307 329 331 338 329 325 322 323 318 321 332 326 324 336 335 325 324 309 313 319 308 302 295 292 296 288 286 284 281 278
259 264 267 263 284 286 278 275 279 275 275 277 289 301 314 330 338 327 327 320 319 322 328 336 328 333 337 325 327 324 324 323 324 308 299 295 296 296 287 289 286 281 278 277
206 269 273 281 266 261 278 278 276 271 273 275 291 299 327 334 323 326 321 325 333 326 329 327 342 331 324 330 325 321 317 312 301 293 289 290 286 283 282 282 280 281 279 273
233 271 264 283 273 282 278 292 249 292 289 293 293 316 321 320 323 324 320 328 330 334 326 340 332 322 333 330 329 328 310 300 292 287 287 285 284 281 280 278 276 273 271 272
240 248 273 271 290 276 70 88 348 294 289 298 297 313 321 311 323 317 321 335 333 327 335 338 328 328 329 335 323 307 302 298 293 288 285 283 282 277 276 275 272 272 268 265
238 255 268 264 281 305 258 162 67 87 297 300 291 325 305 319 313 309 338 337 327 333 344 334 331 328 340 322 308 305 303 302 297 292 289 286 286 283 280 278 275 269 269 267
227 233 266 269 273 276 33 112 83 317 281 56 302 314 314 315 309 318 332 326 337 340 340 334 334 341 324 312 310 307 304 301 297 296 293 290 287 281 281 278 279 277 264 266
209 225 233 242 251 257 102 130 137 255 303 343 320 311 319 316 316 319 323 337 331 348 332 343 339 331 318 312 310 304 303 301 301 297 290 290 285 281 275 278 278 277 276 276
218 214 253 248 264 273 115 134 201 283 319 302 310 313 313 316 316 321 333 330 342 337 341 342 341 321 316 311 312 311 310 311 307 300 295 292 294 308 311 300 296 291 283 273
254 244 278 189 266 113 194 248 282 282 303 309 312 316 309 314 324 332 332 333 342 343 346 337 325 315 316 317 320 314 315 316 314 310 311 315 312 298 296 289 303 308 298 284
195 238 241 268 264 277 227 246 270 278 294 317 307 299 327 322 330 332 325 342 342 346 328 338 320 316 317 319 319 317 317 319 318 326 330 323 322 321 324 318 308 318 312 317
309 154 234 255 263 257 245 256 308 304 308 299 309 327 325 329 332 328 337 337 341 338 322 326 318 316 317 320 319 324 322 324 322 328 324 326 321 323 328 335 306 334 335 294
247 234 245 258 324 277 260 304 288 290 298 317 324 326 327 331 327 329 341 331 339 333 320 322 319 318 322 320 323 328 333 330 323 311 318 328 325 357 347 339 344 199 242 360